Location: Mountain Grove
(34.0887°N, 86.6172°W)
Time: 21:28:06
(UTC+00:00)

Landsat 5 - Pass Details

Date: 14 July 2020
Orbit: 529 x 654 km, 98.2° (Epoch: 08 August)

Event Time Altitude Azimuth Distance (km) Brightness Sun altitude
Exits shadow 09:30:35 - 170° (S) 2,556 6.4 -13.9°
Reaches altitude 10° 09:32:18 10° 171° (S) 1,833 5.7 -13.6°
Maximum altitude 09:36:15 77° 258° (WSW) 562 3.2 -13.0°
Drops below altitude 10° 09:40:07 10° 345° (NNW) 1,795 6.2 -12.4°
Sets 09:42:13 0° 346° (NNW) 2,681 7.2 -12.0°
